[[{"header":{"parameterUnit":"m.s-1","parameterCategory":2,"la1":30.2991,"la2":30.254,"lo1":-89.0895,"lo2":-89.0444,"dy":0.0017,"dx":0.0017,"nx":28,"ny":28,"refTime":"2025-03-25T09:00:00:Z","depth":"0","parameterNumber":2,"parameterNumberName":"U-component_of_CURRENTS"},"data":[0,0,0,0,0,0,0,0,0,0,0,0,0,0,0,0,0,0,0,0,0,0,0,0,0,0,0,0,0,0,0,0,0,0,0,0,0,0,0,0,0,0,0,0,0,0,0,0,0,0,0,0,0,0,0,0,0,0,-0.2108,-0.2109,0,-0.2151,-0.2151,-0.2152,-0.2118,-0.2117,-0.2116,-0.2114,-0.2069,-0.2069,-0.2068,0,0,0,0,0,0,0,0,0,0,0,0,0,-0.1969,-0.1972,-0.2108,-0.2109,-0.211,-0.2151,-0.2151,-0.2152,-0.2118,-0.2117,-0.2115,-0.2114,-0.2069,-0.2069,-0.2068,0,0,0,0,0,0,0,0,0,0,0,0,0,-0.202,-0.1973,-0.2108,-0.21,-0.21,-0.2151,-0.2151,-0.2152,-0.2119,-0.2117,-0.2115,-0.2113,-0.2069,-0.2069,-0.2068,-0.2103,0,0,-0.2068,-0.2068,0,0,0,0,0,0,0,0,-0.2017,-0.2025,-0.2101,-0.2101,-0.2101,-0.213,-0.2086,-0.2132,-0.2119,-0.2109,-0.2114,-0.2112,-0.2084,-0.2082,-0.2092,-0.2101,-0.2099,-0.2068,-0.2068,-0.2068,-0.2068,0,0,0,0,0,0,0,-0.2014,-0.2023,-0.2123,-0.2102,-0.2102,-0.2085,-0.209,-0.2094,-0.2102,-0.211,-0.2108,-0.2117,-0.2083,-0.2092,-0.209,-0.2099,-0.2068,-0.2068,-0.2068,-0.2068,-0.2112,-0.2113,0,0,0,0,0,0,-0.2018,-0.202,-0.2121,-0.2124,-0.2057,-0.2089,-0.2094,-0.212,-0.2104,-0.2101,-0.2119,-0.2116,-0.2093,-0.2091,-0.2089,-0.2114,-0.2068,-0.2068,-0.2068,-0.211,-0.2112,-0.2113,0,0,0,0,0,0,-0.2015,-0.2027,-0.212,-0.2073,-0.2084,-0.2094,-0.2122,-0.2122,-0.2125,-0.2113,-0.2107,-0.2121,-0.2092,-0.2089,-0.2091,-0.2112,-0.2068,-0.2067,-0.2109,-0.2111,-0.2113,-0.2174,0,0,0,0,0,0,-0.2011,-0.2026,-0.2044,-0.2075,-0.2087,-0.215,-0.2124,-0.2124,-0.2135,-0.2131,-0.2114,-0.2108,-0.209,-0.2092,-0.2091,-0.2111,-0.2067,-0.2107,-0.211,-0.2112,-0.2171,-0.2178,-0.2184,0,0,0,0,0,-0.2006,-0.2038,-0.2045,-0.2056,-0.2112,-0.2151,-0.2156,-0.2153,-0.2137,-0.2147,-0.2133,-0.2108,-0.2106,-0.2093,-0.2092,-0.2112,-0.2106,-0.2109,-0.2112,-0.2168,-0.2177,-0.2184,0,0,0,0,0,0,-0.198,-0.2039,-0.2046,-0.2092,-0.212,-0.2146,-0.2158,-0.2159,-0.2159,-0.2149,-0.2126,-0.2121,-0.2133,-0.2117,-0.2103,-0.2132,-0.2102,-0.2105,-0.2145,-0.2153,-0.216,-0.2176,-0.2067,0,0,0,0,0,-0.1988,-0.2026,-0.2071,-0.2104,-0.2123,-0.2142,-0.2156,-0.2159,-0.2167,-0.2165,-0.2154,-0.2144,-0.2149,-0.2144,-0.2145,-0.2162,-0.2149,-0.2174,-0.2181,-0.2187,-0.22,-0.2185,-0.2191,-0.2123,-0.2123,-0.2123,0,0,-0.1984,-0.2022,-0.2041,-0.2101,-0.2121,-0.2164,-0.2145,-0.2173,-0.2201,-0.2161,-0.2183,-0.2171,-0.2161,-0.2179,-0.2183,-0.2164,-0.2204,-0.219,-0.2195,-0.2206,-0.2188,-0.2195,-0.22,-0.2125,-0.2124,-0.2124,0,0,-0.2002,-0.2034,-0.2075,-0.211,-0.2155,-0.2174,-0.2184,-0.2216,-0.222,-0.2246,-0.2226,-0.223,-0.223,-0.2233,-0.2234,-0.2282,-0.2244,-0.2273,-0.2317,-0.2302,-0.2307,-0.2311,-0.2322,-0.2327,-0.2272,-0.2272,-0.2272,0,-0.1994,-0.2061,-0.2088,-0.2141,-0.2172,-0.2182,-0.223,-0.2249,-0.2272,-0.2278,-0.2257,-0.227,-0.2263,-0.229,-0.2309,-0.2299,-0.2283,-0.2285,-0.231,-0.2314,-0.2317,-0.2327,-0.2331,-0.2275,-0.2275,-0.2275,-0.2274,0,-0.2048,-0.2103,-0.2129,-0.2204,-0.2237,-0.2279,-0.2316,-0.2335,-0.2336,-0.2347,-0.2365,-0.2357,-0.2358,-0.2362,-0.2353,-0.238,-0.236,-0.2323,-0.2287,-0.2328,-0.2336,-0.2339,-0.228,-0.2279,-0.2278,-0.2277,0,0,-0.2031,-0.2146,-0.2153,-0.2201,-0.2276,-0.2307,-0.2359,-0.2405,-0.2425,-0.2435,-0.2456,-0.2476,-0.2452,-0.2453,-0.2435,-0.2432,-0.2457,-0.2391,-0.2388,-0.24,-0.2435,-0.2355,-0.2351,-0.2407,-0.2408,-0.2408,-0.2437,0,-0.2065,-0.2166,-0.2215,-0.2301,-0.236,-0.2393,-0.2438,-0.2474,-0.2486,-0.2506,-0.25,-0.251,-0.2491,-0.2483,-0.2483,-0.2457,-0.2466,-0.2454,-0.2396,-0.2395,-0.2316,-0.2352,-0.2122,-0.212,-0.244,-0.244,-0.2441,0,-0.2102,-0.2171,-0.226,-0.2363,-0.2387,-0.2431,-0.2489,-0.2531,-0.2563,-0.2566,-0.2572,-0.2557,-0.2574,-0.2536,-0.2527,-0.2511,-0.2491,-0.2471,-0.247,-0.2376,-0.2321,-0.2128,-0.2114,-0.2013,-0.2446,-0.2445,-0.2445,0,-0.2072,-0.22,-0.2267,-0.2305,-0.2417,-0.2449,-0.2493,-0.2539,-0.2564,-0.2594,-0.2597,-0.2607,-0.2596,-0.2575,-0.2547,-0.2528,-0.2527,-0.2487,-0.2409,-0.2404,-0.2189,-0.2163,-0.2064,-0.249,-0.249,-0.249,-0.249,0,-0.2095,-0.215,-0.2258,-0.2296,-0.2369,-0.2441,-0.2493,-0.2533,-0.2575,-0.2596,-0.2614,-0.2618,-0.2598,-0.259,-0.2566,-0.2501,-0.2539,-0.2432,-0.2402,-0.2206,-0.2183,-0.2069,-0.2094,-0.2491,-0.2491,-0.249,-0.249,0,-0.2056,-0.2131,-0.2214,-0.2325,-0.236,-0.2402,-0.2491,-0.2518,-0.2563,-0.2588,-0.2594,-0.2621,-0.2602,-0.2592,-0.2563,-0.2507,-0.2389,-0.244,-0.2231,-0.2175,-0.1976,-0.2016,-0.199,-0.1955,-0.2344,-0.2342,-0.2341,0,-0.2054,-0.2087,-0.2202,-0.2245,-0.2298,-0.2372,-0.2415,-0.2494,-0.252,-0.258,-0.2583,-0.2589,-0.2563,-0.2511,-0.24,-0.2336,-0.2331,-0.2113,-0.2035,-0.1945,-0.1968,-0.2025,-0.2003,-0.1788,-0.1782,-0.1777,-0.1773,0,-0.2027,-0.2049,-0.2104,-0.2192,-0.2252,-0.2322,-0.2389,-0.2408,-0.2484,-0.2494,-0.2504,-0.2489,-0.242,-0.2204,-0.2122,-0.2076,-0.1991,-0.2011,-0.1942,-0.1557,-0.1586,-0.1541,-0.1832,-0.173,-0.1734,-0.1737,-0.174,-0.1741,-0.1978,-0.1992,-0.2047,-0.2118,-0.2193,-0.2239,-0.2222,-0.2276,-0.2284,-0.2188,-0.2296,-0.2086,-0.1924,-0.1745,-0.1734,-0.151,-0.1717,-0.1386,-0.1457,-0.1537,-0.1446,-0.1673,-0.1518,-0.1521,-0.1524,-0.1526,-0.1528,0,-0.1916,-0.1921,-0.1975,-0.2043,-0.2074,-0.2143,-0.2169,-0.2084,-0.201,-0.1872,-0.1777,-0.1386,-0.1201,-0.1113,-0.0946,-0.0899,-0.0939,-0.0917,-0.0896,-0.0916,-0.1078,-0.0986,-0.0676,-0.0676,-0.0676,-0.0676,-0.0676,-0.0676,-0.1883,-0.187,-0.1882,-0.1894,-0.1935,-0.1874,-0.1839,-0.1704,-0.1542,-0.1163,-0.0816,-0.0625,-0.0594,-0.0556,-0.0482,-0.0494,-0.0545,-0.0538,-0.0706,-0.0729,-0.0777,-0.0822,-0.0735,-0.0377,-0.0377,-0.0401,-0.0402,-0.0402]},{"header":{"parameterUnit":"m.s-1","parameterCategory":2,"la1":30.2991,"la2":30.254,"lo1":-89.0895,"lo2":-89.0444,"dy":0.0017,"dx":0.0017,"nx":28,"ny":28,"refTime":"2025-03-25T09:00:00:Z","depth":"0","parameterNumber":3,"parameterNumberName":"V-component_of_CURRENTS"},"data":[0,0,0,0,0,0,0,0,0,0,0,0,0,0,0,0,0,0,0,0,0,0,0,0,0,0,0,0,0,0,0,0,0,0,0,0,0,0,0,0,0,0,0,0,0,0,0,0,0,0,0,0,0,0,0,0,0,0,-0.0643,-0.0643,0,-0.056,-0.0559,-0.0558,-0.0507,-0.0507,-0.0507,-0.0507,-0.0333,-0.0328,-0.0324,0,0,0,0,0,0,0,0,0,0,0,0,0,-0.0682,-0.0682,-0.0643,-0.0643,-0.0642,-0.056,-0.0559,-0.0558,-0.0507,-0.0507,-0.0507,-0.0507,-0.0334,-0.0329,-0.0323,0,0,0,0,0,0,0,0,0,0,0,0,0,-0.0637,-0.0682,-0.0644,-0.0609,-0.0605,-0.0561,-0.0559,-0.0557,-0.0507,-0.0507,-0.0507,-0.0507,-0.0336,-0.0329,-0.0323,-0.0281,0,0,-0.0301,-0.0298,0,0,0,0,0,0,0,0,-0.0639,-0.0635,-0.0614,-0.0611,-0.0607,-0.0546,-0.0509,-0.0461,-0.0507,-0.0542,-0.0507,-0.0507,-0.0397,-0.0385,-0.0368,-0.0273,-0.0265,-0.0301,-0.0297,-0.0294,-0.0292,0,0,0,0,0,0,0,-0.0643,-0.0638,-0.0608,-0.0614,-0.0609,-0.0571,-0.0565,-0.0499,-0.0467,-0.0539,-0.0535,-0.053,-0.0394,-0.0375,-0.0363,-0.0263,-0.0301,-0.0295,-0.0291,-0.0288,-0.012,-0.012,0,0,0,0,0,0,-0.0662,-0.0641,-0.0611,-0.0606,-0.0626,-0.0571,-0.0564,-0.0564,-0.047,-0.0457,-0.053,-0.0528,-0.0386,-0.0371,-0.0357,-0.0302,-0.0294,-0.0287,-0.0283,-0.012,-0.012,-0.012,0,0,0,0,0,0,-0.0663,-0.066,-0.0614,-0.0623,-0.0615,-0.0571,-0.0571,-0.0562,-0.054,-0.0465,-0.045,-0.0517,-0.0386,-0.0366,-0.0299,-0.0295,-0.0284,-0.0278,-0.0121,-0.012,-0.012,-0.0193,0,0,0,0,0,0,-0.0665,-0.0661,-0.0665,-0.0625,-0.0615,-0.0589,-0.0571,-0.0561,-0.0538,-0.0534,-0.0448,-0.0432,-0.0384,-0.031,-0.0292,-0.0285,-0.0272,-0.0121,-0.0121,-0.012,-0.0191,-0.0195,-0.0199,0,0,0,0,0,-0.0666,-0.067,-0.0666,-0.0662,-0.0623,-0.0589,-0.058,-0.0546,-0.0538,-0.0526,-0.0472,-0.0435,-0.0294,-0.0304,-0.0283,-0.0274,-0.0121,-0.0121,-0.012,-0.0189,-0.0194,-0.0199,0,0,0,0,0,0,-0.0688,-0.0665,-0.0659,-0.0656,-0.0627,-0.0581,-0.057,-0.0548,-0.0497,-0.0492,-0.0424,-0.0403,-0.0344,-0.0297,-0.031,-0.0225,-0.0204,-0.0199,-0.0264,-0.0267,-0.0271,-0.0286,-0.0267,0,0,0,0,0,-0.0697,-0.0695,-0.0664,-0.0661,-0.0651,-0.0612,-0.0594,-0.0572,-0.0525,-0.0503,-0.0446,-0.0383,-0.0325,-0.0289,-0.0229,-0.0176,-0.0158,-0.0159,-0.0163,-0.0166,-0.0164,-0.0136,-0.0138,-0.0117,-0.0117,-0.0117,0,0,-0.0704,-0.0692,-0.069,-0.0666,-0.0642,-0.0626,-0.06,-0.0576,-0.0556,-0.0489,-0.0442,-0.039,-0.0314,-0.0261,-0.023,-0.022,-0.0168,-0.0165,-0.0169,-0.0165,-0.0135,-0.0138,-0.014,-0.0117,-0.0117,-0.0117,0,0,-0.0716,-0.0709,-0.0709,-0.0689,-0.0661,-0.0635,-0.0632,-0.0587,-0.0562,-0.0512,-0.0464,-0.0414,-0.0319,-0.0274,-0.0236,-0.0221,-0.0189,-0.0201,-0.0229,-0.0202,-0.0204,-0.0205,-0.0217,-0.0219,-0.0203,-0.0203,-0.0203,0,-0.0728,-0.0727,-0.0702,-0.0695,-0.0683,-0.0644,-0.0639,-0.0604,-0.0542,-0.0522,-0.0504,-0.0387,-0.0327,-0.0267,-0.0265,-0.0231,-0.0223,-0.0222,-0.0209,-0.021,-0.021,-0.0221,-0.0222,-0.0207,-0.0206,-0.0206,-0.0206,0,-0.0736,-0.0735,-0.0733,-0.0716,-0.0696,-0.0685,-0.0644,-0.0619,-0.0588,-0.0553,-0.0492,-0.0418,-0.0353,-0.0328,-0.0287,-0.0255,-0.0254,-0.0222,-0.0206,-0.0217,-0.0228,-0.0228,-0.0212,-0.021,-0.0209,-0.0209,0,0,-0.0769,-0.0747,-0.0746,-0.0749,-0.0711,-0.0699,-0.0669,-0.0634,-0.0623,-0.0558,-0.0538,-0.0442,-0.0413,-0.0369,-0.0317,-0.0289,-0.0295,-0.0261,-0.0258,-0.0287,-0.0266,-0.0174,-0.0165,-0.0261,-0.0261,-0.0261,-0.0286,0,-0.0788,-0.0794,-0.0767,-0.0768,-0.0771,-0.0729,-0.0708,-0.0668,-0.0629,-0.0597,-0.0526,-0.048,-0.0425,-0.0404,-0.0365,-0.0305,-0.0291,-0.0292,-0.0236,-0.0235,-0.0163,-0.016,-0.0074,-0.0079,-0.0286,-0.0286,-0.0286,0,-0.0808,-0.0812,-0.0823,-0.0811,-0.0808,-0.0797,-0.0772,-0.0744,-0.0686,-0.0656,-0.0601,-0.0546,-0.0489,-0.0446,-0.0363,-0.0368,-0.0325,-0.0284,-0.0283,-0.0165,-0.014,-0.0091,-0.0071,0.0021,-0.0285,-0.0285,-0.0285,0,-0.086,-0.0851,-0.0867,-0.0862,-0.0838,-0.0834,-0.0816,-0.0767,-0.0755,-0.0699,-0.0694,-0.0606,-0.0578,-0.0497,-0.0398,-0.0388,-0.0318,-0.0295,-0.018,-0.0176,-0.0072,-0.0057,0.0039,-0.0247,-0.0247,-0.0247,-0.0247,0,-0.09,-0.091,-0.0897,-0.0908,-0.0926,-0.0886,-0.0894,-0.086,-0.0825,-0.0827,-0.0734,-0.0724,-0.0588,-0.0523,-0.0431,-0.0299,-0.0345,-0.0183,-0.0162,-0.0097,-0.0084,0.0027,0.0039,-0.0248,-0.0248,-0.0247,-0.0247,0,-0.0952,-0.0943,-0.0964,-0.0955,-0.0954,-0.0968,-0.0955,-0.0962,-0.0918,-0.0923,-0.0913,-0.0824,-0.0721,-0.0583,-0.0459,-0.0344,-0.0154,-0.0176,-0.0121,-0.009,0.0137,0.0141,0.0228,0.0298,-0.0053,-0.0051,-0.0049,0,-0.0979,-0.0997,-0.101,-0.1034,-0.1033,-0.1045,-0.1058,-0.1016,-0.1025,-0.099,-0.1004,-0.0903,-0.0794,-0.0562,-0.0344,-0.0146,-0.0091,0.0031,0.0094,0.0173,0.019,0.0171,0.0222,0.017,0.0173,0.0176,0.0179,0,-0.103,-0.1034,-0.1055,-0.1113,-0.1139,-0.1162,-0.1175,-0.1193,-0.1156,-0.1116,-0.1067,-0.0968,-0.072,-0.0416,-0.0134,-0.0015,0.0128,0.01,0.0176,0.038,0.037,0.044,0.0122,0.0205,0.0202,0.02,0.0199,0.0198,-0.1066,-0.1101,-0.114,-0.1195,-0.123,-0.1273,-0.1275,-0.126,-0.1234,-0.1074,-0.1036,-0.0687,-0.0415,0.0031,0.0112,0.0407,0.0328,0.0521,0.0511,0.0478,0.0591,0.0327,0.0452,0.0451,0.045,0.0449,0.0449,0,-0.112,-0.1161,-0.1219,-0.1286,-0.1343,-0.1332,-0.1346,-0.1292,-0.122,-0.0901,-0.0704,-0.0094,0.0188,0.0438,0.0732,0.0832,0.0821,0.0866,0.0855,0.0884,0.0658,0.072,0.0918,0.0918,0.0918,0.0918,0.0918,0.0917,-0.1153,-0.1225,-0.1262,-0.1375,-0.141,-0.142,-0.1407,-0.1262,-0.1002,-0.0421,0.0151,0.0554,0.0845,0.0947,0.1119,0.1129,0.1179,0.1157,0.1164,0.1007,0.0974,0.0941,0.1007,0.1261,0.1261,0.1422,0.1424,0.1425]}],[{"header":{"parameterUnit":"m.s-1","parameterCategory":2,"la1":30.2991,"la2":30.254,"lo1":-89.0895,"lo2":-89.0444,"dy":0.0017,"dx":0.0017,"nx":28,"ny":28,"refTime":"2025-03-25T09:00:00:Z","depth":"2","parameterNumber":2,"parameterNumberName":"U-component_of_CURRENTS"},"data":[0,0,0,0,0,0,0,0,0,0,0,0,0,0,0,0,0,0,0,0,0,0,0,0,0,0,0,0,0,0,0,0,0,0,0,0,0,0,0,0,0,0,0,0,0,0,0,0,0,0,0,0,0,0,0,0,0,0,-0.1244,-0.1244,0,-0.1191,-0.1191,-0.119,-0.1186,-0.1187,-0.1188,-0.1188,-0.1152,-0.115,-0.1149,0,0,0,0,0,0,0,0,0,0,0,0,0,-0.127,-0.127,-0.1244,-0.1244,-0.1243,-0.1192,-0.1191,-0.119,-0.1186,-0.1187,-0.1188,-0.1189,-0.1152,-0.115,-0.1149,0,0,0,0,0,0,0,0,0,0,0,0,0,-0.1241,-0.127,-0.1244,-0.1236,-0.1235,-0.1192,-0.1191,-0.119,-0.1186,-0.1187,-0.1188,-0.1189,-0.1153,-0.1151,-0.1148,-0.1112,0,0,-0.1141,-0.114,0,0,0,0,0,0,0,0,-0.1243,-0.124,-0.1238,-0.1237,-0.1235,-0.1198,-0.1186,-0.1165,-0.1186,-0.1203,-0.1188,-0.1189,-0.1169,-0.1165,-0.1151,-0.1111,-0.1109,-0.1141,-0.1139,-0.1138,-0.1137,0,0,0,0,0,0,0,-0.1245,-0.1242,-0.1222,-0.1237,-0.1236,-0.121,-0.1208,-0.1182,-0.118,-0.1202,-0.1202,-0.1197,-0.1168,-0.1153,-0.115,-0.1109,-0.1141,-0.1139,-0.1137,-0.1136,-0.1098,-0.1099,0,0,0,0,0,0,-0.1256,-0.1244,-0.1224,-0.1221,-0.1243,-0.1209,-0.1206,-0.1208,-0.118,-0.1177,-0.1196,-0.1197,-0.1157,-0.1153,-0.1149,-0.1181,-0.1138,-0.1136,-0.1134,-0.1098,-0.1099,-0.1099,0,0,0,0,0,0,-0.1257,-0.1255,-0.1226,-0.1232,-0.1226,-0.1208,-0.1209,-0.1206,-0.1207,-0.1176,-0.1173,-0.1203,-0.1157,-0.1152,-0.1144,-0.1177,-0.1135,-0.1133,-0.1097,-0.1098,-0.1099,-0.1196,0,0,0,0,0,0,-0.1258,-0.1256,-0.126,-0.1233,-0.1227,-0.122,-0.1208,-0.1204,-0.1202,-0.1203,-0.118,-0.1177,-0.1158,-0.1147,-0.1141,-0.1173,-0.1131,-0.1097,-0.1098,-0.1099,-0.1192,-0.12,-0.1207,0,0,0,0,0,-0.1259,-0.1266,-0.126,-0.1258,-0.1233,-0.1221,-0.1216,-0.1204,-0.1202,-0.1208,-0.1192,-0.1178,-0.1149,-0.1146,-0.1138,-0.117,-0.1096,-0.1098,-0.1099,-0.1189,-0.1199,-0.1206,0,0,0,0,0,0,-0.128,-0.1266,-0.1259,-0.1261,-0.125,-0.1221,-0.122,-0.1212,-0.1201,-0.1205,-0.1177,-0.1173,-0.1178,-0.1152,-0.1149,-0.1159,-0.1123,-0.1122,-0.1194,-0.1202,-0.121,-0.1239,-0.1129,0,0,0,0,0,-0.1285,-0.1284,-0.1269,-0.1269,-0.1267,-0.1244,-0.1237,-0.1233,-0.1218,-0.1215,-0.12,-0.1183,-0.1171,-0.1171,-0.115,-0.1151,-0.1158,-0.1167,-0.1174,-0.118,-0.1198,-0.1214,-0.1225,-0.1102,-0.1102,-0.1102,0,0,-0.1289,-0.1282,-0.128,-0.1273,-0.126,-0.1274,-0.1243,-0.1243,-0.1262,-0.1211,-0.1231,-0.1204,-0.1174,-0.1182,-0.1183,-0.117,-0.1226,-0.1182,-0.1188,-0.1202,-0.1216,-0.1228,-0.1239,-0.1103,-0.1103,-0.1103,0,0,-0.1303,-0.1295,-0.1305,-0.1307,-0.1301,-0.1294,-0.1301,-0.1287,-0.129,-0.129,-0.1269,-0.1264,-0.1236,-0.1236,-0.1228,-0.1257,-0.1258,-0.125,-0.1319,-0.1335,-0.1346,-0.1355,-0.1418,-0.1432,-0.126,-0.1261,-0.1261,0,-0.131,-0.1329,-0.1305,-0.1325,-0.134,-0.1313,-0.1344,-0.1338,-0.1326,-0.1339,-0.1312,-0.1296,-0.1266,-0.1296,-0.1308,-0.1279,-0.1301,-0.1294,-0.1348,-0.1357,-0.1365,-0.1427,-0.1441,-0.1265,-0.1265,-0.1264,-0.1264,0,-0.1334,-0.1363,-0.1371,-0.1394,-0.1403,-0.1424,-0.1424,-0.1436,-0.1429,-0.1425,-0.1441,-0.1397,-0.139,-0.1384,-0.1353,-0.1403,-0.1407,-0.1353,-0.1335,-0.1384,-0.1445,-0.1459,-0.1272,-0.1271,-0.1269,-0.1268,0,0,-0.1317,-0.1381,-0.1382,-0.1422,-0.145,-0.1458,-0.1502,-0.1532,-0.1564,-0.1544,-0.1591,-0.1557,-0.1527,-0.1516,-0.1482,-0.1501,-0.1579,-0.1461,-0.146,-0.1542,-0.1661,-0.1474,-0.1471,-0.1536,-0.1538,-0.154,-0.1696,0,-0.1349,-0.1421,-0.1438,-0.1509,-0.1555,-0.1565,-0.1604,-0.1626,-0.1635,-0.1669,-0.1643,-0.1651,-0.158,-0.1576,-0.1585,-0.1568,-0.1613,-0.1545,-0.1585,-0.1588,-0.1428,-0.1478,-0.131,-0.1415,-0.1709,-0.1711,-0.1713,0,-0.1358,-0.1422,-0.1507,-0.1595,-0.1611,-0.1644,-0.1712,-0.174,-0.1781,-0.1785,-0.1796,-0.1769,-0.1792,-0.1712,-0.1743,-0.1704,-0.1699,-0.1693,-0.1697,-0.1494,-0.1423,-0.1403,-0.1429,-0.1735,-0.1733,-0.1731,-0.173,0,-0.1359,-0.1457,-0.1536,-0.1566,-0.1659,-0.1696,-0.173,-0.1777,-0.1781,-0.1859,-0.1865,-0.1897,-0.1896,-0.189,-0.1842,-0.1805,-0.1889,-0.1828,-0.1681,-0.1671,-0.1519,-0.1488,-0.1878,-0.1878,-0.1877,-0.1877,-0.1876,0,-0.1387,-0.1441,-0.1545,-0.159,-0.1664,-0.1718,-0.1762,-0.1814,-0.1847,-0.1855,-0.1906,-0.1902,-0.1935,-0.1956,-0.1919,-0.1834,-0.1944,-0.1713,-0.1687,-0.1546,-0.1518,-0.1767,-0.1753,-0.1883,-0.1881,-0.188,-0.1879,0,-0.1367,-0.1438,-0.1527,-0.1643,-0.1667,-0.1713,-0.1738,-0.1732,-0.1814,-0.1834,-0.185,-0.1924,-0.1948,-0.1981,-0.2012,-0.1902,-0.1863,-0.1819,-0.167,-0.1618,-0.1637,-0.1625,-0.1676,-0.1671,-0.1666,-0.1662,-0.1659,0,-0.1363,-0.1413,-0.1537,-0.1554,-0.1602,-0.1652,-0.1633,-0.1697,-0.1673,-0.1801,-0.1778,-0.1877,-0.1827,-0.183,-0.1743,-0.1693,-0.1799,-0.1504,-0.1354,-0.1641,-0.1612,-0.1608,-0.1603,-0.1247,-0.124,-0.1235,-0.1231,0,-0.1346,-0.1384,-0.1451,-0.1503,-0.1505,-0.149,-0.149,-0.1483,-0.155,-0.158,-0.1616,-0.1612,-0.1614,-0.1452,-0.1407,-0.1347,-0.1482,-0.1383,-0.176,-0.1266,-0.1231,-0.1203,-0.1214,-0.1184,-0.1189,-0.1192,-0.1195,-0.1197,-0.1291,-0.1323,-0.1384,-0.1417,-0.1398,-0.1329,-0.1293,-0.1271,-0.1251,-0.1279,-0.1362,-0.1297,-0.1288,-0.1055,-0.1011,-0.1019,-0.11,-0.1039,-0.1059,-0.1084,-0.0948,-0.0899,-0.0772,-0.0774,-0.0776,-0.0778,-0.0779,0,-0.1197,-0.1233,-0.1267,-0.1274,-0.1179,-0.1216,-0.1161,-0.1092,-0.1039,-0.1038,-0.1011,-0.0851,-0.0685,-0.0749,-0.062,-0.0548,-0.0601,-0.0569,-0.0643,-0.0685,-0.0725,-0.0575,-0.0299,-0.0298,-0.0298,-0.0297,0,0,-0.1143,-0.1138,-0.1168,-0.1039,-0.1018,-0.0882,-0.0841,-0.0784,-0.0749,-0.0672,-0.0611,-0.0573,-0.0604,-0.0417,-0.0385,-0.0325,-0.0517,-0.0309,-0.0681,-0.0806,-0.0845,-0.0964,-0.0774,0,0,0,0,0]},{"header":{"parameterUnit":"m.s-1","parameterCategory":2,"la1":30.2991,"la2":30.254,"lo1":-89.0895,"lo2":-89.0444,"dy":0.0017,"dx":0.0017,"nx":28,"ny":28,"refTime":"2025-03-25T09:00:00:Z","depth":"2","parameterNumber":3,"parameterNumberName":"V-component_of_CURRENTS"},"data":[0,0,0,0,0,0,0,0,0,0,0,0,0,0,0,0,0,0,0,0,0,0,0,0,0,0,0,0,0,0,0,0,0,0,0,0,0,0,0,0,0,0,0,0,0,0,0,0,0,0,0,0,0,0,0,0,0,0,0.0299,0.0299,0,0.0282,0.0282,0.0282,0.0244,0.0244,0.0243,0.0242,0.0212,0.0212,0.0211,0,0,0,0,0,0,0,0,0,0,0,0,0,0.0296,0.0296,0.0299,0.0299,0.0299,0.0282,0.0282,0.0282,0.0245,0.0244,0.0243,0.0242,0.0212,0.0212,0.0211,0,0,0,0,0,0,0,0,0,0,0,0,0,0.029,0.0296,0.0299,0.0278,0.0276,0.0282,0.0282,0.0282,0.0245,0.0244,0.0242,0.0241,0.0212,0.0212,0.0211,0.0233,0,0,0.0211,0.0211,0,0,0,0,0,0,0,0,0.029,0.029,0.0282,0.028,0.0278,0.0264,0.0269,0.0265,0.0245,0.0257,0.0242,0.0241,0.0229,0.0227,0.0227,0.0232,0.023,0.0211,0.0211,0.0211,0.0211,0,0,0,0,0,0,0,0.0291,0.029,0.0292,0.0282,0.0279,0.0268,0.0266,0.0268,0.0249,0.0256,0.0253,0.0251,0.0227,0.0227,0.0226,0.023,0.0211,0.0211,0.0211,0.0211,0.0198,0.0197,0,0,0,0,0,0,0.0294,0.0291,0.0293,0.0292,0.0281,0.0269,0.0267,0.027,0.0249,0.0245,0.0252,0.025,0.0228,0.0226,0.0224,0.0195,0.0211,0.0211,0.0211,0.0198,0.0198,0.0197,0,0,0,0,0,0,0.0294,0.0295,0.0294,0.0291,0.029,0.0271,0.0274,0.027,0.0244,0.0247,0.0242,0.0228,0.0227,0.0225,0.0205,0.0195,0.0211,0.021,0.0198,0.0198,0.0197,0.017,0,0,0,0,0,0,0.0295,0.0295,0.0286,0.0291,0.029,0.028,0.0275,0.027,0.0247,0.0242,0.0225,0.0223,0.0226,0.0205,0.0205,0.0195,0.021,0.0199,0.0198,0.0198,0.0171,0.0169,0.0167,0,0,0,0,0,0.0295,0.0282,0.0286,0.0285,0.0283,0.0279,0.0277,0.026,0.0247,0.0233,0.022,0.0222,0.0202,0.0205,0.0205,0.0195,0.0199,0.0198,0.0198,0.0172,0.0169,0.0167,0,0,0,0,0,0,0.0274,0.0278,0.0281,0.0271,0.027,0.0272,0.025,0.0248,0.0229,0.0214,0.0217,0.0214,0.0194,0.02,0.0202,0.019,0.0202,0.0201,0.0183,0.018,0.0178,0.0188,0.021,0,0,0,0,0,0.0269,0.0255,0.0269,0.0255,0.0253,0.025,0.0241,0.0234,0.0225,0.0213,0.0204,0.0197,0.0197,0.019,0.0188,0.0181,0.02,0.0176,0.0174,0.0172,0.018,0.0211,0.0212,0.0195,0.0195,0.0195,0,0,0.0255,0.0255,0.0246,0.0248,0.0241,0.0237,0.024,0.0218,0.0214,0.0215,0.0187,0.0184,0.0193,0.0183,0.0175,0.0182,0.0181,0.0171,0.0169,0.0179,0.0211,0.0212,0.0214,0.0195,0.0195,0.0195,0,0,0.0215,0.0222,0.0195,0.02,0.0191,0.0202,0.0193,0.0188,0.0179,0.0162,0.0166,0.0163,0.0145,0.0165,0.0171,0.0159,0.0167,0.0144,0.0141,0.017,0.0172,0.0175,0.018,0.0183,0.0145,0.0145,0.0145,0,0.0196,0.0175,0.0186,0.0171,0.0174,0.0186,0.0172,0.0175,0.0163,0.0169,0.0143,0.015,0.0147,0.0173,0.0157,0.0156,0.0159,0.0149,0.0168,0.0171,0.0173,0.0179,0.0183,0.0143,0.0144,0.0144,0.0144,0,0.0144,0.0131,0.0115,0.011,0.012,0.0104,0.013,0.0128,0.0119,0.0131,0.0134,0.0135,0.0143,0.014,0.0136,0.0157,0.0147,0.016,0.0176,0.0174,0.0179,0.0183,0.0141,0.0142,0.0142,0.0143,0,0,0.0089,0.0079,0.0071,0.0069,0.0088,0.0091,0.0102,0.0125,0.0134,0.0126,0.0138,0.0139,0.014,0.0149,0.0153,0.0175,0.0179,0.0161,0.0163,0.0167,0.0216,0.0249,0.0257,0.0186,0.0187,0.0188,0.0206,0,0.004,-0.0007,0.0019,0.0003,-0.001,0.0041,0.0057,0.0088,0.0105,0.012,0.015,0.0147,0.0145,0.0131,0.0158,0.0172,0.0191,0.0172,0.0218,0.022,0.0251,0.0265,0.0229,0.0246,0.021,0.0211,0.0211,0,-0.002,-0.004,-0.0083,-0.0045,-0.0042,-0.0038,0.0011,0.0029,0.0085,0.0094,0.0123,0.0138,0.0164,0.0155,0.0203,0.0181,0.0193,0.0211,0.0213,0.0262,0.0262,0.0247,0.0255,0.0218,0.0218,0.0217,0.0217,0,-0.0087,-0.0095,-0.0134,-0.0128,-0.0094,-0.0085,-0.0055,0.0006,0.002,0.007,0.0069,0.0129,0.0116,0.0169,0.0189,0.0187,0.0241,0.0252,0.0304,0.0305,0.0297,0.0297,0.0298,0.0298,0.0298,0.0298,0.0298,0,-0.0147,-0.0166,-0.0177,-0.0197,-0.0209,-0.015,-0.0143,-0.0097,-0.0049,-0.0036,0.0032,0.0044,0.0112,0.0149,0.0192,0.0255,0.0245,0.0312,0.0323,0.0284,0.0283,0.0282,0.0279,0.0299,0.0299,0.0299,0.0299,0,-0.0217,-0.0228,-0.0267,-0.0261,-0.0252,-0.0267,-0.0216,-0.0207,-0.0153,-0.0137,-0.0134,-0.0047,0.0022,0.0104,0.0182,0.0239,0.0314,0.0336,0.0276,0.0281,0.0356,0.0352,0.0415,0.0416,0.0418,0.0419,0.042,0,-0.0253,-0.03,-0.0339,-0.0361,-0.0365,-0.0365,-0.0359,-0.0287,-0.0273,-0.019,-0.0194,-0.0116,-0.0038,0.0111,0.0216,0.0331,0.0335,0.0368,0.0387,0.037,0.0373,0.0367,0.0361,0.0346,0.0346,0.0347,0.0347,0,-0.0325,-0.0366,-0.0407,-0.0467,-0.0486,-0.0479,-0.0463,-0.0469,-0.0384,-0.035,-0.0274,-0.0194,-0.0032,0.0113,0.0266,0.0327,0.0359,0.038,0.0377,0.0335,0.0311,0.0312,0.0308,0.0349,0.0349,0.0348,0.0348,0.0348,-0.0381,-0.0445,-0.0519,-0.0564,-0.0576,-0.0581,-0.059,-0.0551,-0.052,-0.0431,-0.0338,-0.0177,-0.0031,0.0218,0.03,0.0378,0.0397,0.0426,0.0423,0.042,0.0422,0.0403,0.0456,0.0457,0.0457,0.0457,0.0458,0,-0.044,-0.052,-0.0587,-0.0639,-0.0653,-0.0638,-0.0641,-0.063,-0.0596,-0.0451,-0.0334,-0.0135,0.005,0.0202,0.0326,0.0414,0.038,0.0428,0.0368,0.0367,0.0365,0.0361,0.0382,0.0382,0.0382,0.0382,0,0,-0.0472,-0.0577,-0.0626,-0.0689,-0.0708,-0.0732,-0.074,-0.0702,-0.0604,-0.0453,-0.029,-0.009,0.0099,0.018,0.0269,0.033,0.0321,0.0326,0.0378,0.0293,0.029,0.0357,0.035,0,0,0,0,0]}],[{"header":{"parameterUnit":"m.s-1","parameterCategory":2,"la1":30.2991,"la2":30.254,"lo1":-89.0895,"lo2":-89.0444,"dy":0.0017,"dx":0.0017,"nx":28,"ny":28,"refTime":"2025-03-25T09:00:00:Z","depth":"4","parameterNumber":2,"parameterNumberName":"U-component_of_CURRENTS"},"data":[0,0,0,0,0,0,0,0,0,0,0,0,0,0,0,0,0,0,0,0,0,0,0,0,0,0,0,0,0,0,0,0,0,0,0,0,0,0,0,0,0,0,0,0,0,0,0,0,0,0,0,0,0,0,0,0,0,0,-0.052,-0.052,0,-0.0513,-0.0513,-0.0513,-0.0502,-0.0501,-0.0501,-0.0501,-0.0537,-0.0538,-0.0539,0,0,0,0,0,0,0,0,0,0,0,0,0,-0.0564,-0.0563,-0.052,-0.052,-0.052,-0.0513,-0.0513,-0.0513,-0.0502,-0.0501,-0.0501,-0.0501,-0.0536,-0.0538,-0.0539,0,0,0,0,0,0,0,0,0,0,0,0,0,-0.0551,-0.0563,-0.052,-0.0513,-0.0512,-0.0513,-0.0513,-0.0513,-0.0502,-0.0501,-0.0501,-0.05,-0.0536,-0.0538,-0.0539,-0.056,0,0,-0.0545,-0.0546,0,0,0,0,0,0,0,0,-0.0551,-0.0549,-0.0514,-0.0513,-0.0512,-0.0507,-0.0542,-0.0531,-0.0502,-0.0507,-0.0501,-0.05,-0.0531,-0.0533,-0.0533,-0.0562,-0.0563,-0.0545,-0.0546,-0.0547,-0.0548,0,0,0,0,0,0,0,-0.0552,-0.055,-0.0518,-0.0514,-0.0513,-0.0524,-0.0521,-0.054,-0.0523,-0.0506,-0.0505,-0.0503,-0.053,-0.0531,-0.0534,-0.0564,-0.0545,-0.0547,-0.0548,-0.0549,-0.063,-0.0631,0,0,0,0,0,0,-0.0549,-0.055,-0.0519,-0.0518,-0.053,-0.0523,-0.052,-0.051,-0.0521,-0.0522,-0.0503,-0.0502,-0.0528,-0.0532,-0.0535,-0.0574,-0.0547,-0.0549,-0.055,-0.0629,-0.063,-0.0631,0,0,0,0,0,0,-0.055,-0.0546,-0.0519,-0.0534,-0.0531,-0.0522,-0.0511,-0.051,-0.0513,-0.0519,-0.052,-0.0508,-0.0528,-0.0533,-0.0553,-0.0575,-0.055,-0.0551,-0.0628,-0.0629,-0.0631,-0.0643,0,0,0,0,0,0,-0.0551,-0.0547,-0.0543,-0.0533,-0.053,-0.0525,-0.0512,-0.051,-0.0512,-0.0511,-0.0523,-0.0526,-0.0528,-0.055,-0.0554,-0.0577,-0.0553,-0.0626,-0.0628,-0.063,-0.0642,-0.0645,-0.0648,0,0,0,0,0,-0.0553,-0.0546,-0.0543,-0.0539,-0.0523,-0.0525,-0.0525,-0.0518,-0.0513,-0.0518,-0.0523,-0.0525,-0.0566,-0.0552,-0.0557,-0.0581,-0.0625,-0.0628,-0.063,-0.064,-0.0645,-0.0648,0,0,0,0,0,0,-0.0559,-0.0544,-0.054,-0.0527,-0.053,-0.0523,-0.0524,-0.0522,-0.053,-0.0531,-0.0534,-0.0538,-0.0563,-0.0573,-0.0557,-0.0611,-0.0599,-0.0602,-0.0605,-0.0609,-0.0612,-0.0618,-0.0554,0,0,0,0,0,-0.056,-0.055,-0.0544,-0.0535,-0.0537,-0.0534,-0.0534,-0.0534,-0.0536,-0.0539,-0.0549,-0.0564,-0.0578,-0.0592,-0.0606,-0.0637,-0.0637,-0.0658,-0.0662,-0.0664,-0.0674,-0.0685,-0.0689,-0.0639,-0.0639,-0.0639,0,0,-0.0558,-0.0549,-0.0543,-0.0536,-0.0535,-0.0544,-0.0533,-0.0538,-0.0552,-0.0544,-0.0569,-0.0574,-0.0587,-0.0616,-0.063,-0.0627,-0.0678,-0.0667,-0.0669,-0.0677,-0.0688,-0.0692,-0.0697,-0.0641,-0.064,-0.064,0,0,-0.0551,-0.0545,-0.0537,-0.0546,-0.0549,-0.0553,-0.0557,-0.0562,-0.0572,-0.0597,-0.0592,-0.0609,-0.064,-0.0649,-0.0658,-0.0693,-0.0691,-0.0703,-0.073,-0.0741,-0.0744,-0.0748,-0.0748,-0.0751,-0.071,-0.071,-0.071,0,-0.0551,-0.0542,-0.0538,-0.0543,-0.0553,-0.0558,-0.0569,-0.0583,-0.0597,-0.0612,-0.0611,-0.0647,-0.0658,-0.0683,-0.0697,-0.07,-0.0701,-0.071,-0.0744,-0.0747,-0.075,-0.075,-0.0753,-0.0711,-0.0711,-0.071,-0.071,0,-0.054,-0.0546,-0.0547,-0.0554,-0.0566,-0.0578,-0.0598,-0.0619,-0.0635,-0.065,-0.0683,-0.0693,-0.0716,-0.0723,-0.0724,-0.0756,-0.0746,-0.0739,-0.0729,-0.0756,-0.0754,-0.0757,-0.0712,-0.0712,-0.0711,-0.0711,0,0,-0.0507,-0.0534,-0.0535,-0.0553,-0.0578,-0.0588,-0.0619,-0.0649,-0.0678,-0.0699,-0.0731,-0.0755,-0.0761,-0.0772,-0.0772,-0.0786,-0.0808,-0.078,-0.078,-0.0772,-0.0825,-0.0771,-0.0769,-0.0805,-0.0805,-0.0806,-0.0811,0,-0.0503,-0.0514,-0.0534,-0.0565,-0.0577,-0.0611,-0.0648,-0.068,-0.0709,-0.0747,-0.076,-0.0791,-0.078,-0.0794,-0.0806,-0.0807,-0.082,-0.0807,-0.0808,-0.0808,-0.075,-0.0773,-0.0809,-0.0813,-0.0814,-0.0815,-0.0815,0,-0.0481,-0.0497,-0.0516,-0.0582,-0.0594,-0.0622,-0.068,-0.0717,-0.0769,-0.0795,-0.0818,-0.0829,-0.0851,-0.0841,-0.0853,-0.0845,-0.0845,-0.0841,-0.0841,-0.079,-0.076,-0.0784,-0.0821,-0.0821,-0.082,-0.082,-0.082,0,-0.0438,-0.049,-0.0506,-0.0524,-0.0592,-0.0623,-0.0669,-0.0727,-0.0771,-0.0822,-0.085,-0.087,-0.0885,-0.0887,-0.0878,-0.0873,-0.0886,-0.0874,-0.0822,-0.0818,-0.0858,-0.0854,-0.0891,-0.0891,-0.0891,-0.0891,-0.0891,0,-0.0413,-0.0433,-0.0496,-0.0502,-0.0558,-0.0614,-0.0684,-0.0725,-0.0799,-0.0845,-0.0872,-0.0892,-0.0901,-0.0904,-0.0894,-0.0862,-0.0896,-0.0832,-0.0819,-0.0862,-0.0859,-0.086,-0.0856,-0.0892,-0.0892,-0.0892,-0.0891,0,-0.0352,-0.0389,-0.0413,-0.049,-0.0531,-0.0563,-0.0691,-0.0746,-0.081,-0.0864,-0.088,-0.0915,-0.0908,-0.0905,-0.0905,-0.0875,-0.0856,-0.084,-0.0885,-0.0873,-0.0777,-0.0774,-0.0782,-0.078,-0.0778,-0.0777,-0.0776,0,-0.0326,-0.0325,-0.0386,-0.042,-0.0461,-0.0546,-0.0622,-0.0729,-0.0784,-0.0865,-0.088,-0.0898,-0.0907,-0.0853,-0.0859,-0.0828,-0.0819,-0.0812,-0.0799,-0.0781,-0.0768,-0.0767,-0.0766,-0.0774,-0.0773,-0.0773,-0.0772,0,-0.0273,-0.0278,-0.0286,-0.0346,-0.0419,-0.0531,-0.0638,-0.0676,-0.0792,-0.0847,-0.0856,-0.0847,-0.0837,-0.0812,-0.0795,-0.0775,-0.0817,-0.0796,-0.0799,-0.0786,-0.0771,-0.076,-0.0761,-0.0767,-0.0768,-0.0768,-0.0769,0,-0.0228,-0.0206,-0.0212,-0.0265,-0.0369,-0.0491,-0.0564,-0.0651,-0.072,-0.0805,-0.0799,-0.0808,-0.0828,-0.0785,-0.077,-0.0743,-0.073,-0.0713,-0.072,-0.0726,-0.0704,-0.0677,-0.0638,0,0,0,0,0,-0.0193,-0.015,-0.0165,-0.023,-0.0339,-0.0416,-0.057,-0.0649,-0.0749,-0.0736,-0.0771,-0.0754,-0.0726,-0.0729,-0.0686,-0.0743,-0.0734,-0.0693,-0.072,-0.0738,-0.0744,-0.0722,0,0,0,0,0,0,-0.0167,-0.0141,-0.0115,-0.0197,-0.0257,-0.0401,-0.0502,-0.0583,-0.0593,-0.0666,-0.0647,-0.0693,-0.0667,-0.071,-0.0653,-0.0657,-0.0661,-0.0702,-0.07,-0.0735,-0.074,-0.0745,-0.0725,0,0,0,0,0]},{"header":{"parameterUnit":"m.s-1","parameterCategory":2,"la1":30.2991,"la2":30.254,"lo1":-89.0895,"lo2":-89.0444,"dy":0.0017,"dx":0.0017,"nx":28,"ny":28,"refTime":"2025-03-25T09:00:00:Z","depth":"4","parameterNumber":3,"parameterNumberName":"V-component_of_CURRENTS"},"data":[0,0,0,0,0,0,0,0,0,0,0,0,0,0,0,0,0,0,0,0,0,0,0,0,0,0,0,0,0,0,0,0,0,0,0,0,0,0,0,0,0,0,0,0,0,0,0,0,0,0,0,0,0,0,0,0,0,0,-0.0072,-0.0073,0,-0.0103,-0.0103,-0.0104,-0.0096,-0.0096,-0.0095,-0.0095,-0.0095,-0.0096,-0.0096,0,0,0,0,0,0,0,0,0,0,0,0,0,0.0013,0.0011,-0.0072,-0.0073,-0.0073,-0.0103,-0.0103,-0.0104,-0.0096,-0.0096,-0.0095,-0.0094,-0.0095,-0.0096,-0.0096,0,0,0,0,0,0,0,0,0,0,0,0,0,-0.0021,0.0011,-0.0072,-0.0074,-0.0074,-0.0103,-0.0103,-0.0104,-0.0096,-0.0096,-0.0095,-0.0094,-0.0095,-0.0096,-0.0096,-0.0116,0,0,-0.0099,-0.0099,0,0,0,0,0,0,0,0,-0.0019,-0.0024,-0.0073,-0.0074,-0.0074,-0.0096,-0.0073,-0.0107,-0.0097,-0.0087,-0.0095,-0.0094,-0.0094,-0.0094,-0.0101,-0.0116,-0.0117,-0.0099,-0.0099,-0.0099,-0.01,0,0,0,0,0,0,0,-0.0017,-0.0022,-0.0084,-0.0074,-0.0074,-0.0066,-0.007,-0.008,-0.0093,-0.0088,-0.0088,-0.0093,-0.0094,-0.0101,-0.0101,-0.0117,-0.0099,-0.0099,-0.01,-0.01,-0.0134,-0.0134,0,0,0,0,0,0,-0.0017,-0.0021,-0.0083,-0.0085,-0.0045,-0.0068,-0.0073,-0.0089,-0.0094,-0.0094,-0.0093,-0.0092,-0.01,-0.01,-0.0101,-0.0113,-0.0099,-0.01,-0.0101,-0.0133,-0.0134,-0.0134,0,0,0,0,0,0,-0.0015,-0.0023,-0.0081,-0.0053,-0.006,-0.0071,-0.0089,-0.009,-0.0095,-0.0098,-0.0098,-0.0097,-0.0099,-0.01,-0.0109,-0.0113,-0.01,-0.0101,-0.0133,-0.0133,-0.0134,-0.0145,0,0,0,0,0,0,-0.0013,-0.0022,-0.0034,-0.0054,-0.0062,-0.0104,-0.009,-0.0091,-0.01,-0.0099,-0.0101,-0.0101,-0.0099,-0.0107,-0.0109,-0.0114,-0.0102,-0.0132,-0.0133,-0.0134,-0.0144,-0.0146,-0.0148,0,0,0,0,0,-0.001,-0.0036,-0.0035,-0.0042,-0.0078,-0.0105,-0.0109,-0.0112,-0.0101,-0.0111,-0.0107,-0.0101,-0.0114,-0.0109,-0.0111,-0.0116,-0.0132,-0.0133,-0.0134,-0.0143,-0.0146,-0.0148,0,0,0,0,0,0,-0.0006,-0.0038,-0.0037,-0.0071,-0.0086,-0.0104,-0.0118,-0.0114,-0.012,-0.0116,-0.011,-0.011,-0.012,-0.0118,-0.0113,-0.0128,-0.0121,-0.0122,-0.0127,-0.013,-0.0131,-0.0113,-0.0102,0,0,0,0,0,-0.0011,-0.0039,-0.0059,-0.0086,-0.0095,-0.0104,-0.0114,-0.0116,-0.0124,-0.0126,-0.0125,-0.0124,-0.0128,-0.0128,-0.0135,-0.0145,-0.011,-0.0149,-0.0151,-0.0152,-0.0139,-0.0083,-0.0078,-0.0138,-0.0138,-0.0138,0,0,-0.0016,-0.0038,-0.0052,-0.0086,-0.0099,-0.0122,-0.0109,-0.013,-0.0136,-0.0125,-0.0136,-0.0135,-0.0133,-0.0144,-0.0147,-0.014,-0.012,-0.0154,-0.0155,-0.0141,-0.0083,-0.0077,-0.0071,-0.0138,-0.0138,-0.0138,0,0,-0.0047,-0.0061,-0.0094,-0.0109,-0.0132,-0.0137,-0.0142,-0.0158,-0.0153,-0.0165,-0.0155,-0.0149,-0.0165,-0.0154,-0.0153,-0.0168,-0.0134,-0.0179,-0.0169,-0.0115,-0.0109,-0.0103,-0.0057,-0.0047,-0.0175,-0.0175,-0.0175,0,-0.0049,-0.0096,-0.0106,-0.0138,-0.015,-0.0144,-0.017,-0.017,-0.0182,-0.0169,-0.017,-0.0163,-0.0165,-0.0154,-0.016,-0.017,-0.0135,-0.0161,-0.0114,-0.0108,-0.0101,-0.0056,-0.0045,-0.0176,-0.0176,-0.0176,-0.0176,0,-0.0102,-0.0135,-0.0156,-0.0192,-0.0203,-0.0227,-0.0224,-0.0222,-0.021,-0.0199,-0.0185,-0.0179,-0.0166,-0.0173,-0.0172,-0.0137,-0.0126,-0.0125,-0.0104,-0.0095,-0.0049,-0.0037,-0.0177,-0.0177,-0.0177,-0.0176,0,0,-0.0117,-0.0181,-0.0188,-0.0207,-0.023,-0.0243,-0.0246,-0.024,-0.0222,-0.0217,-0.019,-0.0191,-0.0167,-0.0162,-0.0156,-0.0112,-0.0047,-0.01,-0.0096,-0.0045,0.0075,0.0032,0.0041,-0.0032,-0.003,-0.0028,0.0087,0,-0.0153,-0.0224,-0.0238,-0.0281,-0.0312,-0.0295,-0.0293,-0.0277,-0.0252,-0.0223,-0.0187,-0.0169,-0.0169,-0.0158,-0.0113,-0.0068,-0.0014,-0.0078,0.0051,0.0055,0.0025,0.0054,-0.0022,0.0096,0.0099,0.0101,0.0102,0,-0.0196,-0.0238,-0.0298,-0.0319,-0.0326,-0.0341,-0.0315,-0.0309,-0.0257,-0.0231,-0.019,-0.0162,-0.0109,-0.0105,0.0005,-0.0035,0.0025,0.0067,0.0072,0.0049,0.0036,0.0087,0.0125,0.0123,0.0121,0.012,0.0118,0,-0.0206,-0.0268,-0.0315,-0.0329,-0.0357,-0.0357,-0.0352,-0.0312,-0.029,-0.0229,-0.0201,-0.0134,-0.0094,-0.0012,0.0061,0.0045,0.0192,0.018,0.0206,0.0203,0.0213,0.0206,0.0285,0.0285,0.0285,0.0284,0.0284,0,-0.0237,-0.0269,-0.0325,-0.0352,-0.0374,-0.0375,-0.0365,-0.0341,-0.0295,-0.026,-0.0204,-0.0155,-0.0064,0.0019,0.0086,0.0179,0.0218,0.0223,0.0237,0.0202,0.0192,0.0221,0.0213,0.0289,0.0288,0.0287,0.0286,0,-0.0243,-0.0286,-0.034,-0.0382,-0.039,-0.0401,-0.0389,-0.0371,-0.0323,-0.0274,-0.0254,-0.0154,-0.0048,0.0039,0.0178,0.0207,0.0299,0.0328,0.0288,0.0295,0.027,0.0259,0.0371,0.0371,0.0371,0.037,0.037,0,-0.0255,-0.029,-0.0361,-0.0389,-0.0414,-0.0426,-0.0426,-0.0391,-0.0368,-0.027,-0.0244,-0.0132,-0.0064,0.0111,0.0193,0.0319,0.0327,0.0371,0.0318,0.0281,0.0283,0.0272,0.0262,0.037,0.0369,0.0369,0.0369,0,-0.0267,-0.0299,-0.0343,-0.0407,-0.0435,-0.0453,-0.045,-0.0437,-0.0378,-0.0335,-0.0219,-0.0125,-0.0004,0.0113,0.0207,0.0295,0.0333,0.0368,0.0368,0.032,0.028,0.028,0.027,0.0368,0.0368,0.0368,0.0368,0,-0.0268,-0.0298,-0.0359,-0.0404,-0.0452,-0.0475,-0.0471,-0.0431,-0.0397,-0.0294,-0.0249,-0.0109,-0.0017,0.0103,0.0195,0.0265,0.0272,0.0279,0.0284,0.0287,0.0207,0.014,0.0214,0,0,0,0,0,-0.0263,-0.0289,-0.0343,-0.0407,-0.0459,-0.0478,-0.0482,-0.0468,-0.0416,-0.034,-0.0293,-0.0177,-0.0023,0.0061,0.0125,0.016,0.0261,0.0233,0.0265,0.0362,0.0363,0.0277,0,0,0,0,0,0,-0.0262,-0.0306,-0.0336,-0.0398,-0.0438,-0.0481,-0.049,-0.0459,-0.0409,-0.0341,-0.025,-0.0178,-0.0026,-0.0054,0.0126,0.015,0.0172,0.0317,0.0318,0.0361,0.0362,0.0363,0.0276,0,0,0,0,0]}]]